Time,TemperatureF,DewpointF,PressureIn,WindDirection,WindDirectionDegrees,WindSpeedMPH,WindSpeedGustMPH,Humidity,HourlyPrecipIn,Conditions,Clouds,dailyrainin,SolarRadiationWatts/m^2,SoftwareType,DateUTC
2013-09-15 00:02:00,-999.0,-99.9,-100.00,NE,40,4.0,6.0,-999,-99.99,,,-99.99,0.000000,,2013-09-15 04:02:00,
2013-09-15 00:43:00,65.0,63.0,-100.00,NE,38,4.0,5.0,93,0.00,,,0.00,0.000000,,2013-09-15 04:43:00,
2013-09-15 00:55:00,65.0,63.0,-100.00,NE,38,4.0,5.0,93,0.00,,,0.00,0.000000,,2013-09-15 04:55:00,
2013-09-15 01:03:00,65.0,63.0,-100.00,NE,38,4.0,5.0,93,0.00,,,0.00,0.000000,,2013-09-15 05:03:00,
2013-09-15 01:42:00,64.0,62.0,-100.00,North,4,4.0,6.0,94,0.00,,,0.00,0.000000,,2013-09-15 05:42:00,
2013-09-15 01:52:00,64.0,62.0,-100.00,North,4,4.0,6.0,94,0.00,,,0.00,0.000000,,2013-09-15 05:52:00,
2013-09-15 02:02:00,64.0,62.0,-100.00,North,4,4.0,6.0,94,0.00,,,0.00,0.000000,,2013-09-15 06:02:00,
2013-09-15 02:42:00,63.0,62.0,-100.00,NE,43,3.0,4.0,95,0.00,,,0.00,0.000000,,2013-09-15 06:42:00,
2013-09-15 02:52:00,63.0,62.0,-100.00,NE,43,3.0,4.0,95,0.00,,,0.00,0.000000,,2013-09-15 06:52:00,
2013-09-15 03:02:00,63.0,62.0,-100.00,NE,43,3.0,4.0,95,0.00,,,0.00,0.000000,,2013-09-15 07:02:00,
2013-09-15 03:42:00,64.0,63.0,-100.00,North,10,4.0,6.0,95,0.00,,,0.00,0.000000,,2013-09-15 07:42:00,
2013-09-15 03:53:00,64.0,63.0,-100.00,North,10,4.0,6.0,95,0.00,,,0.00,0.000000,,2013-09-15 07:53:00,
2013-09-15 04:02:00,64.0,63.0,-100.00,North,10,4.0,6.0,95,0.00,,,0.00,0.000000,,2013-09-15 08:02:00,
2013-09-15 04:43:00,63.0,62.0,-100.00,NNE,15,3.0,5.0,96,0.00,,,0.00,0.000000,,2013-09-15 08:43:00,
2013-09-15 04:52:00,63.0,62.0,-100.00,NNE,15,3.0,5.0,96,0.00,,,0.00,0.000000,,2013-09-15 08:52:00,
2013-09-15 05:02:00,63.0,62.0,-100.00,NNE,15,3.0,5.0,96,0.00,,,0.00,0.000000,,2013-09-15 09:02:00,
2013-09-15 05:44:00,63.0,62.0,-100.00,NNE,23,1.0,6.0,96,0.00,,,0.00,0.000000,,2013-09-15 09:44:00,
2013-09-15 05:54:00,63.0,62.0,-100.00,NNE,23,1.0,6.0,96,0.00,,,0.00,0.000000,,2013-09-15 09:54:00,
2013-09-15 06:03:00,63.0,62.0,-100.00,NNE,23,1.0,6.0,96,0.00,,,0.00,0.000000,,2013-09-15 10:03:00,
2013-09-15 06:43:00,63.0,62.0,-100.00,NNE,14,4.0,6.0,97,0.00,,,0.00,0.000000,,2013-09-15 10:43:00,
2013-09-15 06:53:00,63.0,62.0,-100.00,NNE,14,4.0,6.0,97,0.00,,,0.00,0.000000,,2013-09-15 10:53:00,
2013-09-15 07:02:00,63.0,62.0,-100.00,NNE,14,4.0,6.0,97,0.00,,,0.00,0.000000,,2013-09-15 11:02:00,
2013-09-15 07:42:00,63.0,62.0,-100.00,North,7,3.0,5.0,96,0.00,,,0.00,3.000000,,2013-09-15 11:42:00,
2013-09-15 07:52:00,63.0,62.0,-100.00,North,7,3.0,5.0,96,0.00,,,0.00,3.000000,,2013-09-15 11:52:00,
2013-09-15 08:02:00,63.0,62.0,-100.00,North,7,3.0,5.0,96,0.00,,,0.00,3.000000,,2013-09-15 12:02:00,
2013-09-15 08:42:00,67.0,64.0,-100.00,NE,52,6.0,8.0,91,0.00,,,0.00,116.000000,,2013-09-15 12:42:00,
2013-09-15 08:52:00,67.0,64.0,-100.00,NE,52,6.0,8.0,91,0.00,,,0.00,116.000000,,2013-09-15 12:52:00,
2013-09-15 09:02:00,67.0,64.0,-100.00,NE,52,6.0,8.0,91,0.00,,,0.00,116.000000,,2013-09-15 13:02:00,
2013-09-15 09:42:00,72.0,64.0,-100.00,NE,52,9.0,13.0,77,0.00,,,0.00,329.000000,,2013-09-15 13:42:00,
2013-09-15 09:53:00,72.0,64.0,-100.00,NE,52,9.0,13.0,77,0.00,,,0.00,329.000000,,2013-09-15 13:53:00,
2013-09-15 10:02:00,72.0,64.0,-100.00,NE,52,9.0,13.0,77,0.00,,,0.00,329.000000,,2013-09-15 14:02:00,
2013-09-15 15:42:00,81.0,61.0,-100.00,NE,42,5.0,13.0,50,0.00,,,0.00,884.000000,,2013-09-15 19:42:00,
2013-09-15 15:52:00,81.0,61.0,-100.00,NE,42,5.0,13.0,50,0.00,,,0.00,884.000000,,2013-09-15 19:52:00,
2013-09-15 16:02:00,81.0,61.0,-100.00,NE,42,5.0,13.0,50,0.00,,,0.00,884.000000,,2013-09-15 20:02:00,
2013-09-15 16:42:00,81.0,61.0,-100.00,ENE,78,6.0,13.0,51,0.00,,,0.00,716.000000,,2013-09-15 20:42:00,
2013-09-15 16:53:00,81.0,61.0,-100.00,ENE,78,6.0,13.0,51,0.00,,,0.00,716.000000,,2013-09-15 20:53:00,
2013-09-15 17:02:00,81.0,61.0,-100.00,ENE,78,6.0,13.0,51,0.00,,,0.00,716.000000,,2013-09-15 21:02:00,
2013-09-15 17:44:00,81.0,61.0,-100.00,NE,55,5.0,12.0,51,0.00,,,0.00,559.000000,,2013-09-15 21:44:00,
2013-09-15 17:54:00,81.0,61.0,-100.00,NE,55,5.0,12.0,51,0.00,,,0.00,559.000000,,2013-09-15 21:54:00,
2013-09-15 18:04:00,81.0,61.0,-100.00,NE,55,5.0,12.0,51,0.00,,,0.00,559.000000,,2013-09-15 22:04:00,
2013-09-15 18:44:00,79.0,62.0,-100.00,East,79,5.0,10.0,57,0.00,,,0.00,294.000000,,2013-09-15 22:44:00,
2013-09-15 18:53:00,79.0,62.0,-100.00,East,79,5.0,10.0,57,0.00,,,0.00,294.000000,,2013-09-15 22:53:00,
2013-09-15 19:02:00,79.0,62.0,-100.00,East,79,5.0,10.0,57,0.00,,,0.00,294.000000,,2013-09-15 23:02:00,
2013-09-15 19:42:00,74.0,62.0,-100.00,ENE,75,4.0,9.0,66,0.00,,,0.00,108.000000,,2013-09-15 23:42:00,
2013-09-15 19:53:00,74.0,62.0,-100.00,ENE,75,4.0,9.0,66,0.00,,,0.00,108.000000,,2013-09-15 23:53:00,
2013-09-15 20:01:00,74.0,62.0,-100.00,ENE,75,4.0,9.0,66,0.00,,,0.00,108.000000,,2013-09-16 00:01:00,
2013-09-15 20:42:00,69.0,64.0,-100.00,East,101,1.0,5.0,83,0.00,,,0.00,2.000000,,2013-09-16 00:42:00,
2013-09-15 20:52:00,69.0,64.0,-100.00,East,101,1.0,5.0,83,0.00,,,0.00,2.000000,,2013-09-16 00:52:00,
2013-09-15 21:02:00,69.0,64.0,-100.00,East,101,1.0,5.0,83,0.00,,,0.00,2.000000,,2013-09-16 01:02:00,
2013-09-15 21:42:00,69.0,65.0,-100.00,ENE,67,3.0,8.0,86,0.00,,,0.00,0.000000,,2013-09-16 01:42:00,
2013-09-15 21:52:00,69.0,65.0,-100.00,ENE,67,3.0,8.0,86,0.00,,,0.00,0.000000,,2013-09-16 01:52:00,
2013-09-15 22:02:00,69.0,65.0,-100.00,ENE,67,3.0,8.0,86,0.00,,,0.00,0.000000,,2013-09-16 02:02:00,
2013-09-15 22:42:00,66.0,64.0,-100.00,ENE,69,2.0,3.0,92,0.00,,,0.00,0.000000,,2013-09-16 02:42:00,
2013-09-15 22:52:00,66.0,64.0,-100.00,ENE,69,2.0,3.0,92,0.00,,,0.00,0.000000,,2013-09-16 02:52:00,
2013-09-15 23:02:00,66.0,64.0,-100.00,ENE,69,2.0,3.0,92,0.00,,,0.00,0.000000,,2013-09-16 03:02:00,
2013-09-15 23:05:00,65.0,63.0,-100.00,ENE,66,0.0,4.0,93,0.00,,,0.00,0.000000,,2013-09-16 03:05:00,
2013-09-15 23:45:00,65.0,63.0,-100.00,ENE,66,0.0,4.0,93,0.00,,,0.00,0.000000,,2013-09-16 03:45:00,
2013-09-15 23:55:00,65.0,63.0,-100.00,ENE,66,0.0,4.0,93,0.00,,,0.00,0.000000,,2013-09-16 03:55:00,